Location: Barruelo
(41.2448°N, 3.8231°W)
Time: 08:18:23
(UTC+00:00)

Cosmos 2227 Rocket - Pass Details

Date: 15 March 2026
Orbit: 836 x 845 km, 71.0° (Epoch: 18 April)

Event Time Altitude Azimuth Distance (km) Brightness Sun altitude
Rises 21:47:26 0° 344° (NNW) 3,413 6.0 -37.2°
Reaches altitude 10° 21:50:11 10° 354° (N) 2,475 5.0 -37.6°
Enters shadow 21:51:35 17° 4° (N) 2,049 4.5 -37.8°
